Location: Huesca
(42.1318°N, 0.4078°W)
Time: 20:33:30
(UTC+02:00)

Altair - Pass Details

Date: 18 July 2024
Orbit: 1502 x 1682 km, 47.2° (Epoch: 14 June)

Event Time Altitude Azimuth Distance (km) Brightness Sun altitude
Rises 17:57:59 0° 182° (S) 4,756 10.2 37.7°
Reaches altitude 10° 18:02:24 10° 165° (SSE) 3,742 9.5 36.9°
Maximum altitude 18:08:10 18° 126° (SE) 3,108 8.9 35.8°
Drops below altitude 10° 18:13:51 10° 87° (E) 3,680 9.1 34.7°
Sets 18:18:04 0° 70° (ENE) 4,649 9.5 34.0°
